User: anonymous   Login
Location: Unspecified
(28.7900°N, 0.0000°E)
Time: 11:21:32
(UTC+00:00)
Language:

Meteor 2-10 - Orbit

View from above orbital plane
View from above orbital plane
View from above satellite
View from above satellite

Ground track
Ground track

The orbit is defined by the following mean orbital elements,

1 14452U          26088.23478994 +.00000000 +00000-0 +71383-4 0 00005
2 14452  81.1582  77.8348 0091051  75.0319 286.0918 14.27254594    08
Epoch (UTC): 29 March 2026 05:38:05
Eccentricity: 0.0091051
inclination: 81.1582°
perigee height: 736 km
apogee height: 866 km
right ascension of ascending node: 77.8348°
argument of perigee: 75.0319°
revolutions per day: 14.27254594
mean anomaly at epoch: 286.0918°

The dashed part of the orbit path shows where the satellite is in the earth's shadow,  

DLR